Location: Bonaustraße
(48.4603°N, 11.9280°E)
Time: 20:00:42
(UTC+01:00)

Envisat - Pass Details

Date: 25 January 2021
Orbit: 764 x 766 km, 98.1° (Epoch: 06 March)

Event Time Altitude Azimuth Distance (km) Brightness Sun altitude
Rises 07:12:10 0° 5° (N) 3,245 6.1 -6.5°
Reaches altitude 10° 07:14:44 10° 355° (N) 2,314 5.2 -6.1°
Maximum altitude 07:19:03 29° 297° (WNW) 1,389 3.8 -5.4°
Drops below altitude 10° 07:23:21 10° 239° (WSW) 2,300 5.1 -4.8°
Sets 07:25:54 0° 228° (SW) 3,221 6.0 -4.4°
